STARLINK-34345, 64153

Orbit data source: Space-Track

STARLINK-34345, 64153 is a payload satellite owned by SpaceX/Seattle (US) in SSO that was launched on Tue, 27 May 2025 UTC via an FALCON 9 launch vehicle from the Air Force Western Test Range (AFWTR). Payload-class satellites include a variety of spacecraft equipped with specific instruments for various scientific and technological missions. These include communications satellites like Starlink; space stations such as the ISS; scientific satellites like the Hubble; Earth observation satellites from companies like Planet Labs, Umbra, and HawkEye 360; GPS; miniature CubeSats for education and research; and military/defense satellites.

Loading next visibility...
Identifier
64153, 2025-112H
Orbit
SSO
Country
Flag of USUS
Related business
Manufacturer
SpaceX/Seattle
Mission
Operational Commercial Communications
Bus & Motor
STARLINK V2MO, Unknown motor
Mass
575 kg wet, ~530 kg dry
Launch date (UTC)
2025-05-27 (1 year ago)
Launch vehicle
FALCON 9
Launch site
Air Force Western Test Range (AFWTR)
Object type
Payload
Rocket body
Debris
Shape & HBR
Box + 2 Pan, 17.7 m
Radar Cross Section
36.964 m², Large (>1 m²)

Expand to show TLE details & history
Last TLE update: 8 hours ago

TLE from 8 hours ago
0 STARLINK-34345
1 64153U 25112H   26145.41167206  .00004829  00000-0  33846-3 0  9995
2 64153  97.4458 196.7831 0001943 114.9684 245.1745 15.05657394 54858
Epoch: 2026-05-25T09:52Z
TLE epoch observation values (Epoch: 2026-05-25T09:52:48.465Z)
Latitude
-0.00008°
Longitude
165.58133°
Altitude
553.124 km
Speed
7.585 km/s
True Right ascension
13h 07m 07s
True Declination
0° 00' 00"
Sunlit
Object was in full shadow at epoch
Visualization orbit readout
Latitude
Unknown
Longitude
Unknown
Altitude
Unknown
Speed
Unknown
Apparent Right ascension
Unknown
Apparent Declination
Unknown
Sunlit
N/A
Visualization observer readout
Local Sidereal Time
02:48:23
Azimuth
Unknown
Elevation
Unknown
Doppler factor
Unknown
Orbital elements
Apogee altitude
547.821 km
Perigee altitude
545.13 km
Semi-major axis
6,924.612 km
Eccentricity
0.00019
Inclination
97.4458°
RAAN
196.7831°
Arg. of periapsis
114.9684°
True anomaly
245.15429°
Mean anomaly
245.1745°
Eccentric anomaly
245.1644°
Mean motion
3.7666 °/min
Orbital period
95.58 mins
BSTAR
0.00033846
Loading maneuver chart data...
Computing Atmospheric mass density...
Loading historical data...
Loading historical data...
Loading historical data...
Loading historical data...
Loading historical data...
Loading historical data...
Loading historical data...

Documentation

Showing up to 5 results
|